Flag for Norfolk Island Weather past 2 weeks in Kingston, Norfolk Island

Now
66 °F

Passing clouds.


Feels Like: 66 °F
Forecast: 66 / 69 °F
Wind: 8 mph from East

Location: Norfolk Island Airport


UV Index: 3 (Moderate)

Visibility: N/A


Pressure: 30.12 "Hg

Humidity: 68%

Dew point: 55 °F

Location of KingstonLocation

Historic Weather in Kingston

°F

Kingston temperature yesterday

Maximum temperature yesterday: 72 °F (at 10:30 AM)
Minimum temperature yesterday: 63 °F (at 1:00 AM)
Average temperature yesterday: 67 °F

Past Weeks' High & Low Weather Summary

 TemperatureHumidityPressure
High75 °F (Apr 12, 10:30 AM)100% (Apr 15, 8:30 AM)30.24 "Hg (Apr 15, 8:30 AM)
Low61 °F (Apr 11, 6:30 AM)47% (Apr 22, 1:30 PM)29.42 "Hg (Apr 16, 6:00 PM)
Average69 °F78%29.99 "Hg
* Reported Apr 10 5:30 PM — Apr 25 5:30 PM, Kingston, Weather by CustomWeather, © 2014

Note: Actual official high and low records may vary slightly from our data, if they occured in-between our weather recording intervals... More about our weather records

Advertising

Historic Weather Conditions — Data for Previous 24 hours

 ConditionsComfort  
Time TempWeatherWind HumidityBarometerVisibility
5:30 PM
Apr 25
68 °FPassing clouds.8 mph69%30.09 "HgN/A
5:00 PM68 °FPartly sunny.9 mph69%30.09 "HgN/A
4:30 PM68 °FPartly sunny.13 mph69%30.09 "HgN/A
4:00 PM70 °FPartly sunny.12 mph64%30.09 "HgN/A
3:30 PM70 °FPartly sunny.13 mph64%30.09 "HgN/A
2:30 PM70 °FPartly sunny.15 mph60%30.09 "HgN/A
2:00 PM72 °FPartly sunny.12 mph61%30.09 "HgN/A
1:30 PM72 °FPartly sunny.15 mph61%30.09 "HgN/A
1:00 PM72 °FPartly sunny.14 mph61%30.12 "HgN/A
12:30 PM70 °FPartly sunny.14 mph64%30.12 "HgN/A
12:00 PM73 °FPartly sunny.14 mph61%30.12 "HgN/A
11:30 AM72 °FPartly sunny.16 mph61%30.15 "HgN/A
10:30 AM72 °FPartly sunny.17 mph61%30.15 "HgN/A
10:00 AM72 °FPartly sunny.13 mph61%30.15 "HgN/A
9:30 AM70 °FPartly sunny.14 mph64%30.15 "HgN/A
9:00 AM68 °FPartly sunny.12 mph73%30.15 "HgN/A
8:30 AM68 °FPartly sunny.10 mph73%30.15 "HgN/A
8:00 AM66 °FScattered clouds.9 mph78%30.15 "HgN/A
7:30 AM66 °FBroken clouds.10 mph78%30.12 "HgN/A
7:00 AM64 °FPartly sunny.10 mph83%30.12 "HgN/A
6:30 AM66 °FOvercast.9 mph78%30.09 "HgN/A
6:00 AM66 °FOvercast.10 mph78%30.09 "HgN/A
5:30 AM66 °FPassing clouds.10 mph78%30.09 "HgN/A
5:00 AM64 °FMostly cloudy.9 mph83%30.09 "HgN/A
4:30 AM64 °FOvercast.9 mph88%30.09 "HgN/A
4:00 AM64 °FOvercast.1 mph88%30.09 "HgN/A
3:30 AM63 °FDrizzle. Overcast.3 mph94%30.09 "HgN/A
3:23 AM63 °FDrizzle. Overcast.5 mph94%30.09 "HgN/A
3:00 AM63 °FDrizzle. Overcast.3 mph88%30.12 "Hg3 mi
2:30 AM63 °FDrizzle. Overcast.8 mph88%30.12 "Hg3 mi
2:00 AM66 °FDrizzle. Overcast.13 mph78%30.12 "HgN/A
1:30 AM66 °FPartly cloudy.9 mph78%30.12 "HgN/A
1:00 AM66 °FPassing clouds.10 mph78%30.12 "HgN/A
12:30 AM64 °FPassing clouds.8 mph88%30.12 "HgN/A
11:30 PM
Apr 24
64 °FPassing clouds.10 mph83%30.12 "HgN/A
11:00 PM66 °FPassing clouds.10 mph78%30.15 "HgN/A
10:30 PM64 °FPartly cloudy.8 mph78%30.15 "HgN/A
10:00 PM66 °FPassing clouds.9 mph78%30.15 "HgN/A
9:30 PM66 °FPartly cloudy.10 mph78%30.15 "HgN/A
9:00 PM66 °FPassing clouds.12 mph78%30.15 "HgN/A
8:30 PM66 °FPartly cloudy.12 mph78%30.15 "HgN/A
8:00 PM66 °FPartly cloudy.12 mph78%30.15 "HgN/A
7:30 PM66 °FPartly cloudy.9 mph78%30.15 "HgN/A
6:30 PM66 °FPassing clouds.9 mph78%30.12 "HgN/A
6:00 PM66 °FPassing clouds.12 mph73%30.09 "HgN/A
Weather by CustomWeather, © 2014

See weather overview